{"data":{"norad_id":63483,"epoch":"2026-09-20T15:59:03.159456Z","epoch_age_seconds":141347,"freshness":"FRESH","line1":"1 63483U 25070Z   26263.66600879  .00017887  00000+0  65752-3 0  9997","line2":"2 63483  43.0030 238.8223 0002507 264.1524  95.9042 15.27599936 82793","mean_motion":15.27599936,"eccentricity":0.0002507,"inclination_deg":43.003,"raan_deg":238.8223,"arg_perigee_deg":264.1524,"mean_anomaly_deg":95.9042,"bstar":0.00065752,"rev_number":8279,"period_min":94.265518481928,"perigee_km":481.26931674417,"apogee_km":484.7094855217,"semimajor_km":6861.1264011329,"source":"CELESTRAK","updated_at":"2026-09-21T09:00:35.011948Z"}}